NOAA-17
1 27453U 02032A 12054.31390027 .00000186 00000-0 98062-4 0 6086
2 27453 098.3494 087.0902 0012495 130.7792 229.4467 14.24396298502409
NOAA-18
1 28654U 05018A 12054.38344302 -.00000049 00000-0 -22006-5 0 854
2 28654 099.0327 011.6014 0015027 116.2247 244.0486 14.11606379348368
NOAA-19
1 33591U 09005A 12054.36555991 .00000097 00000-0 77908-4 0 2747
2 33591 098.8548 355.6384 0014163 349.7124 010.3752 14.11296945156815
HUBBLE
1 20580U 90037B 12054.06756340 .00001552 00000-0 10250-3 0 9485
2 20580 028.4682 176.7224 0003046 274.1397 085.8949 15.02204207997407
ISS
1 25544U 98067A 12054.95299164 .00019173 00000-0 24316-3 0 695
2 25544 051.6442 334.9734 0020665 078.2958 019.4320 15.59228772760207
CO-58
1 28895U 05043F 12053.85353521 .00000578 00000-0 12801-3 0 01073
2 28895 097.9338 285.0921 0018235 150.4245 209.8028 14.60490559336824
FALCON
1 30776U 07006E 12053.92233472 .00003345 00000-0 22360-3 0 03040
2 30776 035.4331 260.4072 0001745 061.7876 298.3017 15.06663449272855
MAST
1 31126U 07012K 12054.58263514 .00000350 00000-0 88045-4 0 3912
2 31126 097.8794 072.3727 0094973 107.5255 253.6332 14.54038669257615
CAPE1
1 31130U 07012P 12053.76332007 .00000620 00000-0 15110-3 0 4025
2 31130 097.8879 068.0628 0102772 122.2903 238.8306 14.52776271257013
COMPASS
1 32787U 08021E 12053.68438507 .00002172 00000-0 26968-3 0 02315
2 32787 097.8132 117.5382 0016389 079.6177 280.6881 14.83535127206684
AAUSAT2
1 32788U 08021F 12053.61014188 .00002152 00000-0 26551-3 0 02231
2 32788 097.8161 117.7884 0016290 080.8331 279.4722 14.83815616206698
DO-64
1 32789U 08021G 12053.82840591 .00003369 00000-0 40055-3 0 02382
2 32789 097.8267 119.6197 0015881 078.1035 282.1933 14.84982575206752
CO-66
1 32791U 08021J 12053.83422156 .00001340 00000-0 17088-3 0 02252
2 32791 097.8173 117.5118 0017002 078.9051 281.4014 14.83034006206640
RS-30
1 32953U 08025A 12054.83554269 .00000010 00000-0 00000 0 0 5481
2 32953 082.5044 006.2416 0017926 194.4922 165.5651 12.43021174170352
TACSAT-3
1 35001U 09028A 12053.48608741 .00108243 00000-0 69586-3 0 08867
2 35001 040.4479 071.9357 0005712 164.3859 195.7146 15.75037288156137
PHARMSAT
1 35002U 09028B 12053.47316259 .00047281 00000-0 45487-3 0 8045
2 35002 040.4649 076.8989 0006087 297.9978 062.0228 15.65664785156081
METEOR-M
1 35865U 09049A 12054.72730493 -.00000023 00000-0 94764-5 0 1708
2 35865 098.6705 111.1214 0003122 035.6459 324.4926 14.21855837126334
RS-38
1 35869U 09049E 12054.83529238 .00000024 00000-0 30709-4 0 1794
2 35869 098.6672 111.2407 0005133 031.9577 328.1910 14.22055333126361
JUGNU
1 37839U 11058B 12053.84326970 .00000619 00000-0 19019-3 0 939
2 37839 019.9615 336.9786 0019482 034.5113 325.6540 14.12027202 18922
SRMSAT
1 37841U 11058D 12053.95332316 .00000264 00000-0 00000-0 0 00961
2 37841 019.9742 338.9476 0011707 003.8865 356.1630 14.10116249018915
RAX-2
1 37853U 11061D 12053.94856459 .00006129 00000-0 49676-3 0 01148
2 37853 101.7132 041.7547 0250908 319.1716 039.0906 14.78937030017369
AUBIESAT
1 37854U 11061E 12053.93012434 .00006913 00000-0 55335-3 0 1066
2 37854 101.7166 041.8386 0251037 318.6343 039.6078 14.79248141 17346
HRBE
1 37855U 11061F 12053.93434127 .00006512 00000-0 52137-3 0 01190
2 37855 101.7181 041.8324 0251980 318.7611 039.4793 14.79149398017348
RS-39
1 38051U 11062C 12054.83254137 .00009083 00000-0 40089-3 0 908
2 38051 051.6525 343.9472 0011711 352.7574 035.1393 15.22409275 4543
